STARLINK-11568, 63307

Orbit data source: Space-Track

STARLINK-11568, 63307 is a payload satellite owned by SpaceX/Seattle (US) in LEO that was launched on Tue, 18 Mar 2025 UTC via an FALCON 9 launch vehicle from the Air Force Eastern Test Range (AFETR). Payload-class satellites include a variety of spacecraft equipped with specific instruments for various scientific and technological missions. These include communications satellites like Starlink; space stations such as the ISS; scientific satellites like the Hubble; Earth observation satellites from companies like Planet Labs, Umbra, and HawkEye 360; GPS; miniature CubeSats for education and research; and military/defense satellites.

Loading next visibility...
Identifier
63307, 2025-057A
Orbit
LEO
Country
Flag of USUS
Related business
Manufacturer
SpaceX/Seattle
Mission
Operational Commercial Communications
Bus & Motor
STARLINK V2MD, Unknown motor
Mass
960 kg wet, ~910 kg dry
Launch date (UTC)
2025-03-18 (8 months ago)
Launch vehicle
FALCON 9
Launch site
Air Force Eastern Test Range (AFETR)
Object type
Payload
Rocket body
Debris
Shape & HBR
Box + 2 Pan, 18.1 m
Radar Cross Section
36.964 m², Large (>1 m²)

Expand to show TLE details & history
Last TLE update: 13 hours ago

TLE from 13 hours ago
0 STARLINK-11568
1 63307U 25057A   25306.34767360  .00217020  00000-0  16457-2 0  9997
2 63307  43.0004 311.7849 0001312 260.2954  99.7765 15.70916144 37157
Epoch: 2025-11-02T08:20Z
TLE epoch observation values (Epoch: 2025-11-02T08:20:38.999Z)
Latitude
-0.00003°
Longitude
144.75767°
Altitude
356.199 km
Speed
7.697 km/s
True Right ascension
20h 47m 08s
True Declination
0° 00' 00"
Sunlit
Object was in daylight at epoch
Visualization orbit readout
Latitude
Unknown
Longitude
Unknown
Altitude
Unknown
Speed
Unknown
Apparent Right ascension
Unknown
Apparent Declination
Unknown
Sunlit
N/A
Visualization observer readout
Local Sidereal Time
16:56:04
Azimuth
Unknown
Elevation
Unknown
Doppler factor
Unknown
Orbital elements
Apogee altitude
359.143 km
Perigee altitude
357.375 km
Semi-major axis
6,736.396 km
Eccentricity
0.00013
Inclination
43.0004°
RAAN
311.7849°
Arg. of periapsis
260.2954°
True anomaly
99.79132°
Mean anomaly
99.7765°
Eccentric anomaly
99.78391°
Mean motion
3.92556 °/min
Orbital period
91.71 mins
BSTAR
0.0016457
Loading maneuver chart data...
Computing Atmospheric mass density...
Loading historical data...
Loading historical data...
Loading historical data...
Loading historical data...
Loading historical data...
Loading historical data...
Loading historical data...

Documentation

Showing up to 5 results
|